Regional Weather Roundup
Issued by NWS

Home | Current Version | Previous Version | Graphics & Text | Print | Product List | Glossary On
Versions: 1 2 3 4 5 6 7 8 9 10 11 12 13 14 15 16 17 18 19 20 21 22 23 24 25 26 27 28 29 30 31 32 33 34 35 36 37 38 39 40 41 42 43 44 45 46 47 48 49 50
000
ASUS45 KCYS 231810
RWRWY

WYOMING REGIONAL WEATHER ROUNDUP
NATIONAL WEATHER SERVICE CHEYENNE WY
1100 AM MST FRI FEB 23 2018

NOTE:  "FAIR" INDICATES FEW OR NO CLOUDS BELOW 12,000 FEET
WITH NO SIGNIFICANT WEATHER AND/OR OBSTRUCTIONS TO VISIBILITY.

WYZ001-231900-
YELLOWSTONE NATIONAL PARK

CITY           SKY/WX    TMP DP  RH WIND       PRES   REMARKS
LK YELLOWSTONE   N/A      0  -5  79 CALM      29.94S
6HR MIN TEMP: -16; 6HR MAX TEMP:   1;

W YELLOWSTONE  NOT AVBL

$$
WYZ002>013-054>058-071-098>099-231900-
NORTHERN WYOMING

CITY           SKY/WX    TMP DP  RH WIND       PRES   REMARKS
JACKSON          N/A     11   2  67 NE7       29.97F WCI   0
CODY           FAIR      19   4  51 SW10      30.00F WCI   7
GREYBULL       FAIR      -2  -6  83 N5        30.12F WCI -12
6HR MIN TEMP: -18; 6HR MAX TEMP:  -2;

WORLAND        FAIR       3  -2  79 SW6       30.09F WCI  -8
6HR MIN TEMP: -14; 6HR MAX TEMP:   3;

SHERIDAN       FAIR       7  -2  66 CALM      30.05F
6HR MIN TEMP: -14; 6HR MAX TEMP:   7;

BUFFALO        FAIR      10   1  67 S5        29.98F WCI   2
6HR MIN TEMP:   2; 6HR MAX TEMP:  12;

GILLETTE       FAIR      17   4  56 S8        30.04F WCI   7
6HR MIN TEMP: -11; 6HR MAX TEMP:  17;

HULETT         FAIR      16   1  53 MISG      30.07F
NEWCASTLE      FAIR       9   1  72 S3        30.13S

$$
WYZ014>020-022>026-101>103-231900-
CENTRAL WYOMING

CITY           SKY/WX    TMP DP  RH WIND       PRES   REMARKS
BIG PINEY      FAIR      19   9  65 N8        29.92S WCI   9
6HR MIN TEMP:   0; 6HR MAX TEMP:  19; 6HR PCP: TRACE;

PINEDALE       FAIR      18   9  68 NW10      29.92S WCI   6
DUBOIS           N/A    N/A N/A N/A MISG        N/A
LANDER         FAIR      13   3  64 N3        29.98F
6HR MIN TEMP:  -5; 6HR MAX TEMP:  13;

RIVERTON       FAIR       9   1  70 CALM      30.00F
6HR MIN TEMP:  -4; 6HR MAX TEMP:  10;

CASPER         FAIR       7  -3  64 CALM      30.02S
6HR MIN TEMP: -16; 6HR MAX TEMP:   7;

DOUGLAS        FAIR       2  -1  88 CALM      30.06F
6HR MIN TEMP: -12; 6HR MAX TEMP:   3;


$$
WYZ021-027>030-104>119-231900-
SOUTHERN WYOMING

CITY           SKY/WX    TMP DP  RH WIND       PRES   REMARKS
EVANSTON       LGT SNOW  11   6  81 E12       29.88R WCI  -3
6HR MIN TEMP:   5; 6HR MAX TEMP:  12; 6HR PCP: TRACE;

ROCK SPRINGS   CLOUDY    14  10  84 E5        29.90S WCI   6
6HR MIN TEMP:   4; 6HR MAX TEMP:  14; 6HR PCP: TRACE;

DIXON          FAIR      31  10  41 SW7       29.92S WCI  24
RAWLINS        FOG       16  12  84 CALM      29.92F VSB 3/4
6HR MIN TEMP:   2; 6HR MAX TEMP:  16;

SARATOGA       FAIR      28  14  54 SE9       29.90F WCI  20
LARAMIE        FAIR      22  15  75 S8        29.90F WCI  12
6HR MIN TEMP:   0; 6HR MAX TEMP:  22;

CHEYENNE       FAIR      26  18  71 S14       29.99S WCI  14
6HR MIN TEMP:   8; 6HR MAX TEMP:  27;

TORRINGTON     FAIR      25   9  50 S6        30.09F WCI  18
6HR MIN TEMP:   6; 6HR MAX TEMP:  25;

PINE BLUFFS    FAIR      19  12  73 MISG      30.06F

$$



USA.gov is the U.S. government's official web portal to all federal, state and local government web resources and services.